This demonstration page uses our WeatherBlox Daily Observations layout. Learn more.

39.92423, -83.80882

Hourly Observations for July 1, 2020

Temp ( °F °C ) Dew Point ( °F °C ) Humidity (%) Winds ( mph kmh ) Pressure ( in mb ) Visibility ( mi km ) Precip ( " mm )
12:56 am 00:56 Clear 70 21.1 70 21.1 100 100 Calm 29.91 1013 9 14.48406 0 0
1:56 am 01:56 Clear 70 21.1 70 21.1 100 100 Calm 29.9 1013 9 14.48406 0 0
2:56 am 02:56 Clear with Mist and Fog 67 19.4 67 19.4 100 100 Calm 29.89 1012 5 8.0467 0 0
3:39 am 03:39 Clear with Mist and Fog 66 19 66 19 100 100 Calm 29.9 1012 2.5 4.02335 0 0
3:46 am 03:46 Clear with Mist and Fog 66 19 66 19 100 100 Calm 29.9 1012 5 8.0467 0 0
3:56 am 03:56 Clear with Mist and Fog 67 19.4 67 19.4 100 100 Calm 29.9 1013 6 9.65604 0 0
4:18 am 04:18 Clear with Mist and Fog 68 20 68 20 100 100 Calm 29.89 1012 2 3.21868 0 0
4:25 am 04:25 Mostly Cloudy with Mist and Fog 66 19 66 19 100 100 NE 3 6 29.9 1012 0.75 1.207005 0 0
4:29 am 04:29 Mostly Cloudy with Fog 66 19 66 19 100 100 ENE 3 6 29.9 1012 0.25 0.402335 0 0
4:39 am 04:39 Mostly Cloudy with Mist and Fog 66 19 66 19 100 100 Calm 29.9 1012 0.75 1.207005 0 0
4:41 am 04:41 Mostly Clear with Mist and Fog 66 19 66 19 100 100 Calm 29.89 1012 2.5 4.02335 0 0
4:48 am 04:48 Mostly Clear with Mist and Fog 66 19 66 19 100 100 Calm 29.89 1012 3 4.82802 0 0
4:56 am 04:56 Mostly Clear with Mist and Fog 66 18.9 66 18.9 100 100 Calm 29.89 1012 3 4.82802 0 0
4:59 am 04:59 Clear with Mist and Fog 66 19 66 19 100 100 Calm 29.89 1012 1.75 2.816345 0 0
5:07 am 05:07 Mostly Cloudy with Mist and Fog 66 19 66 19 100 100 ENE 3 6 29.9 1012 1 1.60934 0 0
5:09 am 05:09 Mostly Cloudy with Fog 66 19 66 19 100 100 ENE 3 6 29.89 1012 0.5 0.80467 0 0
5:18 am 05:18 Mostly Cloudy with Fog 64 18 64 18 100 100 ENE 5 7 29.9 1013 0.25 0.402335 0 0
5:36 am 05:36 Mostly Cloudy with Mist and Fog 66 19 66 19 100 100 Calm 29.9 1012 0.75 1.207005 0 0
5:45 am 05:45 Mostly Cloudy with Fog 66 19 66 19 100 100 Calm 29.91 1013 0.5 0.80467 0 0
5:51 am 05:51 Clear with Mist and Fog 66 19 66 19 100 100 Calm 29.91 1013 0.75 1.207005 0 0
5:56 am 05:56 Clear with Mist and Fog 67 19.4 67 19.4 100 100 Calm 29.91 1013 0.75 1.207005 0 0
6:08 am 06:08 Clear with Mist and Fog 66 19 66 19 100 100 Calm 29.92 1013 1 1.60934 0 0
6:17 am 06:17 Sunny with Mist and Fog 66 19 66 19 100 100 Calm 29.92 1013 1.75 2.816345 0 0
6:26 am 06:26 Sunny with Mist and Fog 66 19 66 19 100 100 Calm 29.93 1013 2.5 4.02335 0 0
6:33 am 06:33 Sunny with Mist and Fog 66 19 66 19 100 100 Calm 29.93 1013 4 6.43736 0 0
6:56 am 06:56 Sunny with Mist and Fog 66 18.9 66 18.9 100 100 N 3 6 29.94 1014 4 6.43736 0 0
7:56 am 07:56 Sunny 70 21.1 70 21.1 100 100 ENE 6 9 29.94 1014 9 14.48406 0 0
8:56 am 08:56 Sunny 75 23.9 69 20.6 82 82 E 5 7 29.95 1014 10 16.0934 0 0
9:56 am 09:56 Sunny 78 25.6 70 21.1 76 76 ENE 6 9 29.94 1014 10 16.0934 0 0
10:56 am 10:56 Sunny 81 27.2 71 21.7 72 72 ENE 7 11 29.93 1014 10 16.0934 0 0
11:56 am 11:56 Cloudy 82 27.8 67 19.4 60 60 SE 3 6 29.95 1014 9 14.48406 0 0
12:56 pm 12:56 Partly Cloudy 85 29.4 67 19.4 55 55 SE 7 11 29.95 1014 10 16.0934 0 0
1:56 pm 13:56 Mostly Sunny 87 30.6 64 17.8 46 46 VRB 7 11 29.93 1014 10 16.0934 0 0
2:56 pm 14:56 Mostly Sunny 87 30.6 65 18.3 48 48 ENE 7 11 29.92 1013 10 16.0934 0 0
3:56 pm 15:56 Sunny 87 30.6 63 17.2 45 45 E 9 15 29.9 1013 10 16.0934 0 0
4:56 pm 16:56 Sunny 87 30.6 63 17.2 45 45 VRB 7 11 29.88 1012 10 16.0934 0 0
5:56 pm 17:56 Mostly Sunny 87 30.6 64 17.8 46 46 NE 10 17 29.88 1012 10 16.0934 0 0
6:56 pm 18:56 Mostly Sunny 86 30 62 16.7 45 45 NE 9 15 29.88 1012 10 16.0934 0 0
7:56 pm 19:56 Sunny 83 28.3 62 16.7 49 49 NE 10 17 29.89 1012 10 16.0934 0 0
8:56 pm 20:56 Sunny 78 25.6 63 17.2 60 60 ENE 6 9 29.92 1013 10 16.0934 0 0
9:56 pm 21:56 Clear 75 23.9 63 17.2 66 66 ENE 6 9 29.93 1014 10 16.0934 0 0
10:56 pm 22:56 Clear 72 22.2 64 17.8 76 76 NE 7 11 29.95 1014 10 16.0934 0 0
11:56 pm 23:56 Clear 71 21.7 64 17.8 79 79 NE 6 9 29.96 1015 10 16.0934 0 0

Powered by AerisWeather